Tracking 25689 objects as of 7-Jul-2022
HD Live streaming from Space Station
objects crossing your sky now

FENGYUN 1C DEB

Track FENGYUN 1C DEB now!
10-day predictions


NORAD ID: 35244
Int'l Code: 1999-025DRC
Perigee: 835.5 km
Apogee: 944.7 km
Inclination: 99.0 °
Period: 102.6 minutes
Semi major axis: 7261 km
RCS: 0.0028 m2 (small)
Launch date: May 10, 1999
Source: People's Republic of China (PRC)
Launch site: Taiyaun Space Center, China (TSC)

Note: This is SATELLITE DEBRIS
aabbcc
Your satellite tracking list
Your tracking list is empty




NASA's NSSDC Master Catalog

Two Line Element Set (TLE):
1 35244U 99025DRC 22187.40098290  .00000327  00000-0  23248-3 0  9999
2 35244  98.9833 234.3098 0075199  63.9731 296.9154 14.03141025481975
Source of the keplerian elements: AFSPC